Location: Cranbrook Institute of Science
(42.5830°N, 83.2450°W)
Time: 20:04:40
(UTC-04:00)

Daily predictions for brighter satellites

Satellite Brightness Start Highest point End
(mag) Time Altitude Azimuth Time Altitude Azimuth Time Altitude Azimuth
Cosmos 2208 Rocket 4.4 21:38:03 10° NNW 21:43:17 55° ENE 21:48:34 10° SE
Okean 3 Rocket 3.8 21:43:35 10° S 21:47:58 56° E 21:52:21 10° NNE
ARGOS 4.2 21:43:44 10° SE 21:48:28 32° ENE 21:53:13 10° N
SAR-Lupe-4 3.6 21:45:07 10° SSE 21:48:41 71° ENE 21:52:16 10° N
In-Cosmos 22 4.3 21:43:29 10° S 21:49:12 88° E 21:55:02 10° N
CZ-3B R/B 4.3 21:46:38 10° S 21:49:24 37° ESE 21:57:01 10° NE
Lacrosse 5 2.7 21:44:50 10° NW 21:49:40 42° NE 21:54:28 10° ESE
SL-16 R/B 2.3 21:45:49 10° NNW 21:51:32 86° WSW 21:57:11 10° SSE
Cosmos 1908 3.6 21:48:08 10° N 21:51:54 46° ENE 21:55:37 10° SSE
SPOT 5 4.1 21:47:46 10° SE 21:51:57 29° ENE 21:56:18 10° N
Meteor 1-24 Rocket 4.4 21:49:04 10° SSW 21:54:54 62° WNW 22:00:36 10° N
Cosmos 1570 Rocket 4.1 21:49:53 10° NNW 21:55:14 77° ENE 22:00:29 10° SSE
USA 32 4.1 21:52:24 10° S 21:57:39 85° W 22:02:56 10° N
Cosmos 1766 Rocket 4.2 21:56:11 10° SSE 22:00:07 35° E 22:04:05 10° NNE
KORONAS-FOTON 4.5 21:57:47 10° SSE 22:01:17 36° E 22:04:46 10° NNE
Abrixas rocket 3.5 21:58:55 10° NW 22:01:58 36° NNE 22:05:01 10° E
Cosmos 1242 Rocket 2.7 21:59:37 10° N 22:03:19 61° ENE 22:06:59 10° SSE
Helios 1B rocket 3.0 22:03:52 10° N 22:07:58 63° WNW 22:12:03 10° SSW
SAR-Lupe-1 4.2 22:04:30 10° S 22:08:05 77° WSW 22:11:43 10° NNW
USA 245 4.2 22:07:27 12° SE 22:10:24 34° ENE 22:14:17 10° N
Cosmos 2084 3.5 22:08:22 10° SW 22:12:22 74° NW 22:16:13 10° NNE
Cosmos 1867 3.6 22:10:17 10° SSW 22:15:43 89° ESE 22:21:14 10° NNE
Milstar 3 Cent rocket 4.4 22:10:11 10° WSW 22:16:10 27° S 22:25:01 12° SE
H-2A R/B 4.3 22:15:15 10° E 22:16:49 12° ENE 22:18:24 10° NE
Resurs 01 Rocket 4.3 22:14:22 10° SW 22:16:54 15° W 22:19:25 10° NW
USA 234 3.6 22:11:01 10° ENE 22:17:09 42° SE 22:23:16 10° SSW
Helios 1A 4.3 22:14:05 10° SSW 22:17:56 37° W 22:21:48 10° NNW
Cosmos 2228 Rocket 4.2 22:14:42 10° NNE 22:18:48 31° ENE 22:22:04 14° SE
Cosmos 468 Rocket 4.2 22:16:42 10° NNW 22:21:47 59° ENE 22:26:04 14° SE
NOAA 11 4.2 22:17:10 10° SSE 22:22:35 87° ENE 22:28:04 10° NNW
Cosmos 1459 Rocket 4.1 22:19:07 10° N 22:25:27 88° W 22:31:39 10° S
SL-08 RB Rocket 4.1 22:21:53 14° SE 22:25:40 50° ENE 22:30:09 10° N
Terra 3.4 22:24:00 11° ESE 22:27:15 22° ENE 22:30:50 10° NNE
ERS-1 Rocket 3.1 22:22:15 10° S 22:27:17 75° WSW 22:32:21 10° NNW
Cosmos 2227 4.2 22:22:30 10° SSW 22:28:10 69° ESE 22:33:51 10° NNE
Cosmos 2100 Rocket 4.2 22:25:00 10° N 22:31:17 75° W 22:37:37 10° S
H-2A ROCKET BODY 3.9 22:28:42 10° S 22:31:47 16° SE 22:37:43 10° ESE
Cosmos 332 Rocket 4.0 22:28:30 10° NNW 22:33:22 61° ENE 22:37:02 17° SE
Cosmos 1356 Rocket 4.1 22:33:39 10° SSW 22:37:49 58° WNW 22:42:06 10° N
Cosmos 2061 Rocket 4.2 22:32:05 10° N 22:38:29 78° W 22:44:53 10° S
MetOp-B 4.3 22:35:14 11° S 22:40:24 77° WSW 22:45:48 10° NNW
Cosmos 2173 Rocket 4.3 22:35:00 10° NNW 22:41:07 68° W 22:47:18 10° S
Meteor 2-10 4.4 22:36:44 10° N 22:42:18 60° ENE 22:46:32 18° SSE
Cosmos 2123 Rocket 4.0 22:36:14 10° S 22:42:18 64° E 22:48:27 10° NNE
H-2A R/B 2.3 22:39:05 17° SSE 22:43:10 62° ENE 22:48:32 10° N
Cosmos 220 Rocket 4.2 22:39:19 10° S 22:43:36 53° ESE 22:47:53 10° NNE
Cosmos 1626 3.7 22:44:37 18° ESE 22:45:31 19° E 22:48:14 10° NE
Cosmos 2058 4.1 22:44:53 20° SE 22:46:36 27° E 22:50:10 10° NNE
Cosmos 1726 2.1 22:45:58 10° N 22:49:40 85° W 22:52:04 20° S
Cosmos 2263 Rocket 2.7 22:46:57 17° SSE 22:50:41 36° ESE 22:55:46 10° NE
Cosmos 1300 2.6 22:49:32 10° N 22:53:22 80° E 22:55:37 24° SSE
RESURS DK-1 2.5 22:50:13 10° NNW 22:54:23 71° WSW 22:56:54 23° SSE
ATLAS 5 CENTAUR R/B 3.8 22:51:00 10° WSW 22:55:18 33° NW 22:59:58 10° NNE
SL-14 R/B 3.2 22:53:30 17° S 22:56:29 79° E 23:00:25 10° N
EO 1 Delta rocket 3.8 22:55:37 19° SSE 22:58:57 86° ENE 23:03:37 10° N
Cosmos 1408 Rocket 4.3 22:56:11 10° SSW 23:00:22 50° W 23:04:36 10° N
Meteor 2-2 Rocket 4.4 22:57:17 10° NNW 23:03:05 79° W 23:07:36 18° S
Cosmos 1725 Rocket 4.0 22:58:19 10° N 23:04:37 88° W 23:09:19 19° S
ERBS 2.2 23:01:50 10° NW 23:05:14 84° NE 23:06:28 37° SE
Cosmos 1328 3.8 23:02:47 17° S 23:05:50 82° W 23:09:54 10° N
Cosmos 1356 3.5 23:11:37 38° SSE 23:12:41 57° E 23:16:09 10° NNE
Tiangong 1 0.6 23:10:10 10° W 23:12:58 85° S 23:13:24 60° ESE
Cosmos 2151 3.0 23:11:00 28° SSE 23:13:06 63° E 23:17:24 10° NNE
Cosmos 1354 Rocket 4.4 23:16:07 28° SSE 23:18:28 45° ESE 23:23:26 10° NNE
Cosmos 1603 4.4 23:13:22 10° NW 23:18:47 47° WSW 23:22:24 20° S
Cosmos 1500 Rocket 3.5 23:18:03 23° S 23:20:48 88° W 23:25:17 10° N
Cosmos 1814 Rocket 4.4 23:16:33 10° NNW 23:21:49 59° WSW 23:24:55 24° S
DMSP B5D2-2 4.0 23:17:26 10° NNE 23:22:42 83° ESE 23:26:17 21° S
Cosmos 371 Rocket 3.7 23:18:31 10° NNW 23:23:14 56° WSW 23:25:49 25° S
Cosmos 1844 Rocket 4.4 23:24:43 14° E 23:24:47 14° E 23:27:39 10° ENE
Cosmos 1455 2.8 23:23:03 10° N 23:26:44 41° ENE 23:27:33 36° ESE
CZ-4C R/B 3.4 23:28:14 21° ESE 23:28:14 21° ESE 23:32:13 10° ENE
ARGOS 4.4 23:24:14 13° SSW 23:28:37 35° W 23:33:34 10° NNW
Cosmos 1486 Rocket 4.2 23:24:29 10° SSW 23:29:40 74° WNW 23:35:00 10° NNE
SPOT 5 4.2 23:26:16 14° SSW 23:29:52 34° W 23:34:30 10° NNW
CARTOSAT-1 3.5 23:29:27 37° SSE 23:31:09 89° ENE 23:35:29 10° NNW
Cosmos 841 Rocket 3.5 23:26:10 10° NNW 23:31:27 79° WSW 23:33:53 32° S
Lacrosse 5 2.7 23:27:55 10° WNW 23:32:36 39° SW 23:34:30 28° S
Cosmos 1763 Rocket 3.8 23:27:59 10° NNW 23:33:00 58° WSW 23:35:29 28° S
Cosmos 1943 3.3 23:28:20 10° NNW 23:33:59 72° WSW 23:36:46 31° S
SL-19 R/B 4.2 23:29:35 10° NNE 23:34:56 66° ESE 23:37:45 29° S
Cosmos 1869 4.5 23:33:54 10° NNE 23:37:20 28° ENE 23:37:55 27° E
SPOT 1/Viking Rocket 4.5 23:35:08 19° SSW 23:38:25 40° W 23:43:17 10° NNW
Abrixas rocket 2.4 23:35:38 10° WNW 23:38:41 54° SW 23:38:41 54° SW
Cosmos 1805 Rocket 4.0 23:39:13 39° ESE 23:40:00 44° E 23:44:08 10° NNE
Cosmos 1633 Rocket 4.2 23:44:55 27° E 23:45:12 27° E 23:48:54 10° NNE
CZ-4C R/B 4.1 23:46:43 38° ESE 23:47:47 46° ENE 23:51:59 10° N
Cosmos 1151 Rocket 3.8 23:44:32 10° NNW 23:48:46 47° W 23:50:35 29° SSW
IGS 5A 3.8 23:48:26 39° SSW 23:49:44 59° W 23:53:52 10° NNW
H-2A R/B 2.1 23:51:01 44° S 23:52:17 71° WSW 23:56:32 10° NNW
SME Rocket 3.4 23:52:50 43° ESE 23:53:42 53° ENE 23:58:14 10° N
